Volkel, Netherlands

6:21 PM CEST on May 22, 2017 (GMT +0200)
Volkel Air Base

Weather History for EHVK - April, 2013

Change the Weather History Date:

Wednesday, April 3, 2013

  Actual Average Record
Temperature  
Mean Temperature 38 °F -  
Max Temperature 44 °F 57 °F 73 °F (2014)
Min Temperature 32 °F 40 °F 32 °F (2013)
Degree Days  
Heating Degree Days 27    
Moisture  
Dew Point 22 °F    
Average Humidity 56    
Maximum Humidity 69    
Minimum Humidity 42    
Precipitation  
Precipitation 0.00 in - - ()
Sea Level Pressure  
Sea Level Pressure 29.99 in    
Wind  
Wind Speed 13 mph ()    
Max Wind Speed 22 mph    
Max Gust Speed 30 mph    
Visibility 6.2 miles    
Events      
Averages and records for this station are not official NWS values.
T = Trace of Precipitation, MM = Missing Value Source: Averaged Metar Reports

Daily Weather History Graph

Daily Weather History Graph

Search for Another Location

Airport or City:

Trip Planner

Search our weather history database for the weather conditions in past years. The results will help you decide how hot, cold, wet, or windy it might be!

Date:

Astronomy

Apr. 03, 2013 Rise Set
Actual Time 7:07 AM CEST 8:14 PM CEST
Civil Twilight 6:33 AM CEST 8:48 PM CEST
Nautical Twilight 5:52 AM CEST 9:30 PM CEST
Astronomical Twilight 5:07 AM CEST 10:14 PM CEST
Moon 3:22 AM CEST (4/3) 12:23 PM CEST (4/3)
Length of Visible Light 14h 14m
Length of Day
13h 06m
Waning Gibbous, 47% of the Moon is Illuminated
Apr 3
Waning Gibbous
Apr 10
New
Apr 18
First Quarter
Apr 25
Full
May 2
Last Quarter

Hourly Weather History & Observations

Time (CEST) Temp. Windchill Dew Point Humidity Pressure Visibility Wind Dir Wind Speed Gust Speed Precip Events Conditions
12:25 AM 32.0 °F 22.5 °F 21.2 °F 64% 29.98 in 6.2 mi ENE 12.7 mph - N/A   Partly Cloudy
12:55 AM 32.0 °F 23.0 °F 21.2 °F 64% 29.98 in 6.2 mi ENE 11.5 mph - N/A   Partly Cloudy
1:25 AM 32.0 °F 24.2 °F 21.2 °F 64% 29.98 in 6.2 mi NE 9.2 mph - N/A   Partly Cloudy
1:55 AM 32.0 °F 22.5 °F 23.0 °F 69% 29.98 in 6.2 mi NE 12.7 mph - N/A   Overcast
2:25 AM 32.0 °F 23.0 °F 23.0 °F 69% 29.98 in 6.2 mi NE 11.5 mph - N/A   Overcast
2:55 AM 32.0 °F 23.0 °F 21.2 °F 64% 29.98 in 6.2 mi NE 11.5 mph - N/A   Partly Cloudy
3:25 AM 32.0 °F 23.6 °F 21.2 °F 64% 30.01 in 6.2 mi NE 10.4 mph - N/A   Partly Cloudy
3:55 AM 32.0 °F 23.0 °F 21.2 °F 64% 30.01 in 6.2 mi NE 11.5 mph - N/A   Mostly Cloudy
4:25 AM 32.0 °F 23.6 °F 21.2 °F 64% 30.01 in 6.2 mi NE 10.4 mph - N/A   Mostly Cloudy
4:55 AM 32.0 °F 22.5 °F 21.2 °F 64% 30.01 in 6.2 mi NE 12.7 mph - N/A   Overcast
5:25 AM 32.0 °F 22.1 °F 21.2 °F 64% 30.01 in 6.2 mi NE 13.8 mph - N/A   Overcast
5:55 AM 32.0 °F 22.5 °F 21.2 °F 64% 30.01 in 6.2 mi NE 12.7 mph - N/A   Overcast
6:25 AM 32.0 °F 23.0 °F 21.2 °F 64% 30.01 in 6.2 mi NE 11.5 mph - N/A   Overcast
6:55 AM 32.0 °F 22.5 °F 21.2 °F 64% 30.01 in 6.2 mi NE 12.7 mph - N/A   Overcast
7:25 AM 32.0 °F 22.1 °F 21.2 °F 64% 30.01 in 6.2 mi NE 13.8 mph - N/A   Overcast
7:42 AM 32.0 °F 22.5 °F 21.2 °F 64% 30.01 in 6.2 mi NE 12.7 mph - N/A   Mostly Cloudy
7:55 AM 32.0 °F 23.0 °F 23.0 °F 69% 30.01 in 6.2 mi NE 11.5 mph - N/A   Overcast
8:25 AM 32.0 °F 22.5 °F 23.0 °F 69% 30.01 in 6.2 mi NE 12.7 mph - N/A   Mostly Cloudy
8:55 AM 33.8 °F 24.3 °F 23.0 °F 65% 30.01 in 6.2 mi NE 13.8 mph - N/A   Mostly Cloudy
9:25 AM 35.6 °F 25.9 °F 23.0 °F 60% 30.01 in 6.2 mi ENE 16.1 mph - N/A   Partly Cloudy
9:55 AM 35.6 °F 24.5 °F 23.0 °F 60% 30.01 in 6.2 mi ENE 20.7 mph - N/A   Unknown
10:11 AM 37.4 °F 27.8 °F 23.0 °F 56% 30.01 in 6.2 mi East 17.3 mph - N/A   Mostly Cloudy
10:12 AM 37.4 °F 27.8 °F 23.0 °F 56% 30.01 in 6.2 mi East 17.3 mph - N/A   Mostly Cloudy
10:25 AM 37.4 °F 27.2 °F 23.0 °F 56% 30.01 in 6.2 mi East 19.6 mph - N/A   Partly Cloudy
10:55 AM 37.4 °F 27.2 °F 23.0 °F 56% 30.01 in 6.2 mi East 19.6 mph - N/A   Overcast
11:25 AM 41.0 °F 31.4 °F 23.0 °F 49% 30.01 in 6.2 mi East 21.9 mph - N/A   Scattered Clouds
11:55 AM 41.0 °F 31.6 °F 23.0 °F 49% 30.01 in 6.2 mi East 20.7 mph - N/A   Unknown
12:25 PM 41.0 °F 31.6 °F 23.0 °F 49% 30.01 in 6.2 mi East 20.7 mph - N/A   Partly Cloudy
12:44 PM 42.8 °F 34.3 °F 23.0 °F 46% 30.01 in 6.2 mi East 19.6 mph - N/A   Mostly Cloudy
12:55 PM 42.8 °F 34.3 °F 23.0 °F 46% 30.01 in 6.2 mi ENE 19.6 mph - N/A   Mostly Cloudy
1:25 PM 44.6 °F 36.4 °F 23.0 °F 43% 29.98 in 6.2 mi ENE 20.7 mph - N/A   Overcast
1:55 PM 44.6 °F 36.4 °F 23.0 °F 43% 29.98 in 6.2 mi ENE 20.7 mph - N/A   Mostly Cloudy
2:25 PM 42.8 °F 34.3 °F 23.0 °F 46% 29.98 in 6.2 mi ENE 19.6 mph - N/A   Scattered Clouds
2:34 PM 42.8 °F 33.8 °F 23.0 °F 46% 29.98 in 6.2 mi ENE 21.9 mph - N/A   Partly Cloudy
2:55 PM 42.8 °F 34.0 °F 21.2 °F 42% 29.98 in 6.2 mi ENE 20.7 mph - N/A   Overcast
3:25 PM 42.8 °F 34.5 °F 21.2 °F 42% 29.98 in 6.2 mi East 18.4 mph - N/A   Mostly Cloudy
3:40 PM 42.8 °F 34.8 °F 23.0 °F 46% 29.98 in 6.2 mi East 17.3 mph 29.9 mph N/A   Overcast
3:55 PM 44.6 °F 37.2 °F 23.0 °F 43% 29.98 in 6.2 mi East 17.3 mph - N/A   Overcast
4:17 PM 44.6 °F 36.6 °F 23.0 °F 43% 29.98 in 6.2 mi East 19.6 mph - N/A   Overcast
4:25 PM 44.6 °F 36.6 °F 23.0 °F 43% 29.98 in 6.2 mi East 19.6 mph - N/A   Overcast
4:55 PM 44.6 °F 36.9 °F 23.0 °F 43% 29.98 in 6.2 mi East 18.4 mph - N/A   Scattered Clouds
5:25 PM 42.8 °F 34.3 °F 21.2 °F 42% 29.95 in 6.2 mi East 19.6 mph - N/A   Partly Cloudy
5:55 PM 42.8 °F 34.5 °F 23.0 °F 46% 29.95 in 6.2 mi East 18.4 mph - N/A   Unknown
6:25 PM 42.8 °F 34.5 °F 23.0 °F 46% 29.95 in 6.2 mi ENE 18.4 mph - N/A   Unknown
6:55 PM 41.0 °F 32.5 °F 21.2 °F 45% 29.95 in 6.2 mi East 17.3 mph - N/A   Unknown
7:25 PM 39.2 °F 29.8 °F 23.0 °F 52% 29.95 in 6.2 mi ENE 18.4 mph - N/A   Unknown
7:55 PM 39.2 °F 30.5 °F 23.0 °F 52% 29.98 in 6.2 mi East 16.1 mph - N/A   Unknown
8:25 PM 37.4 °F 28.2 °F 21.2 °F 52% 29.98 in 6.2 mi East 16.1 mph - N/A   Unknown
8:55 PM 37.4 °F 28.5 °F 21.2 °F 52% 29.98 in 6.2 mi East 15.0 mph - N/A   Unknown
9:25 PM 35.6 °F 27.1 °F 21.2 °F 56% 29.98 in 6.2 mi East 12.7 mph - N/A   Partly Cloudy
9:55 PM 33.8 °F 25.3 °F 23.0 °F 65% 29.98 in 6.2 mi East 11.5 mph - N/A   Unknown
10:25 PM 33.8 °F 25.8 °F 23.0 °F 65% 29.98 in 6.2 mi ENE 10.4 mph - N/A   Partly Cloudy
10:55 PM 32.0 °F 24.2 °F 21.2 °F 64% 29.98 in 6.2 mi ENE 9.2 mph - N/A   Scattered Clouds
11:25 PM 33.8 °F 25.8 °F 23.0 °F 65% 29.98 in 6.2 mi ENE 10.4 mph - N/A   Overcast
11:55 PM 33.8 °F 27.0 °F 23.0 °F 65% 29.98 in 6.2 mi ENE 8.1 mph - N/A   Overcast